This is the latest recevied weather packets stored in our database for station/object OK1FRN-6. If no packets are shown the sender has not sent any weather packets the latest 1 day(s).
| Time | Temp. | Humidity | Pressure | Rain* | Wind** | Luminosity | Snow |
|---|---|---|---|---|---|---|---|
| 1778006327 | 19.44° C | 51% | 1004.5 hPa | - | 0 m/s | - | - |
| 1778006021 | 19.44° C | 51% | 1004.7 hPa | - | 0 m/s | - | - |
| 1778005715 | 20° C | 50% | 1004.7 hPa | - | 0 m/s | - | - |
| 1778005408 | 20° C | 50% | 1004.7 hPa | - | 0 m/s | - | - |
| 1778005101 | 20° C | 50% | 1004.7 hPa | - | 0 m/s | - | - |
| 1778004181 | 20.56° C | 50% | 1004.5 hPa | - | 0 m/s | - | - |
| 1778003874 | 20.56° C | 49% | 1004.6 hPa | - | 0.45 m/s, 1° | - | - |
| 1778003567 | 21.11° C | 49% | 1004.7 hPa | - | 0 m/s | - | - |
| 1778003261 | 21.11° C | 49% | 1004.9 hPa | - | 0 m/s | - | - |
| 1778002954 | 21.11° C | 48% | 1005 hPa | - | 0.45 m/s, 356° | - | - |
| 1778002033 | 21.67° C | 47% | 1005 hPa | - | 0.45 m/s, 16° | - | - |
| 1778001113 | 22.22° C | 46% | 1005 hPa | - | 0.45 m/s, 360° | - | - |
| 1778000806 | 22.22° C | 46% | 1005 hPa | - | 0.45 m/s, 6° | - | - |
| 1778000192 | 22.78° C | 45% | 1005 hPa | - | 0.45 m/s, 27° | - | - |
| 1777999885 | 23.33° C | 44% | 1005.1 hPa | - | 0.45 m/s, 35° | - | - |
| 1777998964 | 23.33° C | 43% | 1005.2 hPa | - | 0.89 m/s, 57° | - | - |
| 1777998657 | 23.89° C | 41% | 1005.3 hPa | - | 0.45 m/s, 61° | - | - |
| 1777998043 | 24.44° C | 39% | 1005.4 hPa | - | 0.45 m/s, 49° | - | - |
| 1777997736 | 24.44° C | 38% | 1005.4 hPa | - | 0.89 m/s, 72° | - | - |
| 1777997428 | 25° C | 35% | 1005.5 hPa | - | 0.89 m/s, 69° | - | - |
| 1777997121 | 25.56° C | 36% | 1005.3 hPa | - | 0.45 m/s, 27° | - | - |
| 1777995892 | 26.11° C | 35% | 1005.3 hPa | - | 0.45 m/s, 22° | - | - |
| 1777995585 | 26.67° C | 34% | 1005.2 hPa | - | 0.45 m/s, 6° | - | - |
| 1777995278 | 26.67° C | 34% | 1005.2 hPa | - | 0.45 m/s, 17° | - | - |
| 1777994970 | 27.22° C | 34% | 1005.2 hPa | - | 0.45 m/s, 5° | - | - |
* Rain since midnight (hover to see other rain measurements)
** Current wind speed in m/s (hover to see current wind gust speed)